Time,TemperatureF,DewpointF,PressureIn,WindDirection,WindDirectionDegrees,WindSpeedMPH,WindSpeedGustMPH,Humidity,HourlyPrecipIn,Conditions,Clouds,dailyrainin,SolarRadiationWatts/m^2,SoftwareType,DateUTC
2013-01-10 00:22:00,24.0,24.0,-100.00,East,92,0.0,1.0,98,0.00,,,0.00,0.000000,,2013-01-10 09:22:00,
2013-01-10 00:32:00,24.0,24.0,-100.00,East,92,0.0,1.0,98,0.00,,,0.00,0.000000,,2013-01-10 09:32:00,
2013-01-10 00:42:00,24.0,24.0,-100.00,East,92,0.0,1.0,98,0.00,,,0.00,0.000000,,2013-01-10 09:42:00,
2013-01-10 00:52:00,24.0,24.0,-100.00,East,92,0.0,1.0,98,0.00,,,0.00,0.000000,,2013-01-10 09:52:00,
2013-01-10 01:22:00,27.0,27.0,-100.00,ENE,78,1.0,5.0,100,0.00,,,0.00,0.000000,,2013-01-10 10:22:00,
2013-01-10 01:32:00,27.0,27.0,-100.00,ENE,78,1.0,5.0,100,0.00,,,0.00,0.000000,,2013-01-10 10:32:00,
2013-01-10 01:42:00,27.0,27.0,-100.00,ENE,78,1.0,5.0,100,0.00,,,0.00,0.000000,,2013-01-10 10:42:00,
2013-01-10 01:52:00,27.0,27.0,-100.00,ENE,78,1.0,5.0,100,0.00,,,0.00,0.000000,,2013-01-10 10:52:00,
2013-01-10 02:22:00,27.0,27.0,-100.00,SSW,205,0.0,4.0,99,0.00,,,0.00,0.000000,,2013-01-10 11:22:00,
2013-01-10 02:32:00,27.0,27.0,-100.00,SSW,205,0.0,4.0,99,0.00,,,0.00,0.000000,,2013-01-10 11:32:00,
2013-01-10 02:42:00,27.0,27.0,-100.00,SSW,205,0.0,4.0,99,0.00,,,0.00,0.000000,,2013-01-10 11:42:00,
2013-01-10 02:52:00,27.0,27.0,-100.00,SSW,205,0.0,4.0,99,0.00,,,0.00,0.000000,,2013-01-10 11:52:00,
2013-01-10 05:22:00,27.0,27.0,-100.00,ESE,112,0.0,1.0,100,-99.99,,,0.00,0.000000,,2013-01-10 14:22:00,
2013-01-10 05:32:00,27.0,27.0,-100.00,ESE,112,0.0,1.0,100,-99.99,,,0.00,0.000000,,2013-01-10 14:32:00,
2013-01-10 05:43:00,27.0,27.0,-100.00,ESE,112,0.0,1.0,100,-99.99,,,0.00,0.000000,,2013-01-10 14:43:00,
2013-01-10 05:52:00,27.0,27.0,-100.00,ESE,112,0.0,1.0,100,-99.99,,,0.00,0.000000,,2013-01-10 14:52:00,
2013-01-10 06:22:00,27.0,27.0,-100.00,ENE,76,0.0,2.0,100,0.00,,,0.00,0.000000,,2013-01-10 15:22:00,
2013-01-10 06:32:00,27.0,27.0,-100.00,ENE,76,0.0,2.0,100,0.00,,,0.00,0.000000,,2013-01-10 15:32:00,
2013-01-10 06:43:00,27.0,27.0,-100.00,ENE,76,0.0,2.0,100,0.00,,,0.00,0.000000,,2013-01-10 15:43:00,
2013-01-10 06:52:00,27.0,27.0,-100.00,ENE,76,0.0,2.0,100,0.00,,,0.00,0.000000,,2013-01-10 15:52:00,
2013-01-10 07:22:00,27.0,27.0,-100.00,SE,133,0.0,1.0,100,0.00,,,0.00,0.000000,,2013-01-10 16:22:00,
2013-01-10 07:33:00,27.0,27.0,-100.00,SE,133,0.0,1.0,100,0.00,,,0.00,0.000000,,2013-01-10 16:33:00,
2013-01-10 07:42:00,27.0,27.0,-100.00,SE,133,0.0,1.0,100,0.00,,,0.00,0.000000,,2013-01-10 16:42:00,
2013-01-10 07:52:00,27.0,27.0,-100.00,SE,133,0.0,1.0,100,0.00,,,0.00,0.000000,,2013-01-10 16:52:00,
2013-01-10 08:22:00,26.0,26.0,-100.00,SE,137,0.0,0.0,100,0.00,,,0.00,0.000000,,2013-01-10 17:22:00,
2013-01-10 08:33:00,26.0,26.0,-100.00,SE,137,0.0,0.0,100,0.00,,,0.00,0.000000,,2013-01-10 17:33:00,
2013-01-10 08:42:00,26.0,26.0,-100.00,SE,137,0.0,0.0,100,0.00,,,0.00,0.000000,,2013-01-10 17:42:00,
2013-01-10 08:53:00,26.0,26.0,-100.00,SE,137,0.0,0.0,100,0.00,,,0.00,0.000000,,2013-01-10 17:53:00,
2013-01-10 09:22:00,24.0,24.0,-100.00,ESE,111,0.0,1.0,100,0.00,,,0.00,0.000000,,2013-01-10 18:22:00,
2013-01-10 09:33:00,24.0,24.0,-100.00,ESE,111,0.0,1.0,100,0.00,,,0.00,0.000000,,2013-01-10 18:33:00,
2013-01-10 09:43:00,24.0,24.0,-100.00,ESE,111,0.0,1.0,100,0.00,,,0.00,0.000000,,2013-01-10 18:43:00,
2013-01-10 09:52:00,24.0,24.0,-100.00,ESE,111,0.0,1.0,100,0.00,,,0.00,0.000000,,2013-01-10 18:52:00,
2013-01-10 10:23:00,24.0,24.0,-100.00,ESE,111,0.0,0.0,100,0.00,,,-99.99,1.000000,,2013-01-10 19:23:00,
2013-01-10 10:32:00,24.0,24.0,-100.00,ESE,111,0.0,0.0,100,0.00,,,-99.99,1.000000,,2013-01-10 19:32:00,
2013-01-10 10:43:00,24.0,24.0,-100.00,ESE,111,0.0,0.0,100,0.00,,,-99.99,1.000000,,2013-01-10 19:43:00,
2013-01-10 10:52:00,24.0,24.0,-100.00,ESE,111,0.0,0.0,100,0.00,,,-99.99,1.000000,,2013-01-10 19:52:00,
2013-01-10 11:23:00,25.0,25.0,-100.00,ENE,69,0.0,0.0,100,0.00,,,0.00,3.000000,,2013-01-10 20:23:00,
2013-01-10 11:32:00,25.0,25.0,-100.00,ENE,69,0.0,0.0,100,0.00,,,0.00,3.000000,,2013-01-10 20:32:00,
2013-01-10 11:42:00,25.0,25.0,-100.00,ENE,69,0.0,0.0,100,0.00,,,0.00,3.000000,,2013-01-10 20:42:00,
2013-01-10 11:53:00,25.0,25.0,-100.00,ENE,69,0.0,0.0,100,0.00,,,0.00,3.000000,,2013-01-10 20:53:00,
2013-01-10 12:23:00,26.0,26.0,-100.00,SE,129,0.0,2.0,98,0.00,,,0.00,9.000000,,2013-01-10 21:23:00,
2013-01-10 12:33:00,26.0,26.0,-100.00,SE,129,0.0,2.0,98,0.00,,,0.00,9.000000,,2013-01-10 21:33:00,
2013-01-10 12:42:00,26.0,26.0,-100.00,SE,129,0.0,2.0,98,0.00,,,0.00,9.000000,,2013-01-10 21:42:00,
2013-01-10 12:52:00,26.0,26.0,-100.00,SE,129,0.0,2.0,98,0.00,,,0.00,9.000000,,2013-01-10 21:52:00,
2013-01-10 13:24:00,27.0,27.0,-100.00,ENE,78,0.0,0.0,98,0.00,,,0.00,15.000000,,2013-01-10 22:24:00,
2013-01-10 13:32:00,27.0,27.0,-100.00,ENE,78,0.0,0.0,98,0.00,,,0.00,15.000000,,2013-01-10 22:32:00,
2013-01-10 13:43:00,27.0,27.0,-100.00,ENE,78,0.0,0.0,98,0.00,,,0.00,15.000000,,2013-01-10 22:43:00,
2013-01-10 14:22:00,28.0,27.0,-100.00,ENE,64,0.0,0.0,95,0.00,,,0.00,17.000000,,2013-01-10 23:22:00,
2013-01-10 14:33:00,28.0,27.0,-100.00,ENE,64,0.0,0.0,95,0.00,,,0.00,17.000000,,2013-01-10 23:33:00,
2013-01-10 14:42:00,28.0,27.0,-100.00,ENE,64,0.0,0.0,95,0.00,,,0.00,17.000000,,2013-01-10 23:42:00,
2013-01-10 14:52:00,28.0,27.0,-100.00,ENE,64,0.0,0.0,95,0.00,,,0.00,17.000000,,2013-01-10 23:52:00,
2013-01-10 15:23:00,27.0,26.0,-100.00,SE,124,0.0,0.0,96,0.00,,,0.00,8.000000,,2013-01-11 00:23:00,
2013-01-10 15:33:00,27.0,26.0,-100.00,SE,124,0.0,0.0,96,0.00,,,0.00,8.000000,,2013-01-11 00:33:00,
2013-01-10 15:42:00,27.0,26.0,-100.00,SE,124,0.0,0.0,96,0.00,,,0.00,8.000000,,2013-01-11 00:42:00,
2013-01-10 15:52:00,27.0,26.0,-100.00,SE,124,0.0,0.0,96,0.00,,,0.00,8.000000,,2013-01-11 00:52:00,
2013-01-10 16:22:00,26.0,25.0,-100.00,ENE,63,0.0,0.0,97,0.00,,,0.00,5.000000,,2013-01-11 01:22:00,
2013-01-10 16:33:00,26.0,25.0,-100.00,ENE,63,0.0,0.0,97,0.00,,,0.00,5.000000,,2013-01-11 01:33:00,
2013-01-10 16:42:00,26.0,25.0,-100.00,ENE,63,0.0,0.0,97,0.00,,,0.00,5.000000,,2013-01-11 01:42:00,
2013-01-10 17:23:00,23.0,22.0,-100.00,ESE,110,0.0,0.0,97,0.00,,,0.00,1.000000,,2013-01-11 02:23:00,
2013-01-10 17:33:00,23.0,22.0,-100.00,ESE,110,0.0,0.0,97,0.00,,,0.00,1.000000,,2013-01-11 02:33:00,
2013-01-10 17:43:00,23.0,22.0,-100.00,ESE,110,0.0,0.0,97,0.00,,,0.00,1.000000,,2013-01-11 02:43:00,
2013-01-10 17:52:00,23.0,22.0,-100.00,ESE,110,0.0,0.0,97,0.00,,,0.00,1.000000,,2013-01-11 02:52:00,
2013-01-10 18:22:00,20.0,19.0,-100.00,East,92,0.0,0.0,96,0.00,,,0.00,0.000000,,2013-01-11 03:22:00,
2013-01-10 18:33:00,20.0,19.0,-100.00,East,92,0.0,0.0,96,0.00,,,0.00,0.000000,,2013-01-11 03:33:00,
2013-01-10 18:42:00,20.0,19.0,-100.00,East,92,0.0,0.0,96,0.00,,,0.00,0.000000,,2013-01-11 03:42:00,
2013-01-10 18:52:00,20.0,19.0,-100.00,East,92,0.0,0.0,96,0.00,,,0.00,0.000000,,2013-01-11 03:52:00,
2013-01-10 19:22:00,21.0,21.0,-100.00,ENE,58,0.0,1.0,99,0.00,,,0.00,0.000000,,2013-01-11 04:22:00,
2013-01-10 19:32:00,21.0,21.0,-100.00,ENE,58,0.0,1.0,99,0.00,,,0.00,0.000000,,2013-01-11 04:32:00,
2013-01-10 19:42:00,21.0,21.0,-100.00,ENE,58,0.0,1.0,99,0.00,,,0.00,0.000000,,2013-01-11 04:42:00,
2013-01-10 19:52:00,21.0,21.0,-100.00,ENE,58,0.0,1.0,99,0.00,,,0.00,0.000000,,2013-01-11 04:52:00,
2013-01-10 20:22:00,21.0,21.0,-100.00,NE,53,0.0,1.0,98,0.00,,,0.00,0.000000,,2013-01-11 05:22:00,
2013-01-10 20:42:00,21.0,21.0,-100.00,NE,53,0.0,1.0,98,0.00,,,0.00,0.000000,,2013-01-11 05:42:00,
2013-01-10 20:52:00,21.0,21.0,-100.00,NE,53,0.0,1.0,98,0.00,,,0.00,0.000000,,2013-01-11 05:52:00,
2013-01-10 21:22:00,20.0,19.0,-100.00,ENE,65,0.0,0.0,96,0.00,,,0.00,0.000000,,2013-01-11 06:22:00,
2013-01-10 21:32:00,20.0,19.0,-100.00,ENE,65,0.0,0.0,96,0.00,,,0.00,0.000000,,2013-01-11 06:32:00,